Theta_e
313 314 313 311 304 299 298 297 297 297 296 296 295 294 294 292 292 291 290 290 289 289 288 288 288 287 287 286 285 284 283 282 282 283 283 283 283 283 283 282 282 282 281
312 312 311 306 300 299 297 297 296 296 295 295 294 294 292 291 291 290 289 289 289 289 288 288 287 287 287 286 285 285 284 282 282 282 283 282 282 282 282 282 281 281 280
311 310 307 301 300 298 297 296 296 295 295 294 293 293 292 291 290 289 289 289 288 288 288 288 287 287 287 286 285 285 284 283 282 281 282 282 281 281 282 281 280 279 279
308 307 302 299 299 298 297 296 295 295 294 293 293 292 291 290 289 289 289 288 288 288 288 287 287 287 287 286 285 284 284 283 282 281 281 281 281 281 280 278 279 278 278
305 304 300 298 297 297 296 295 294 294 293 292 291 290 290 289 289 288 288 288 288 287 287 287 287 287 286 286 285 284 283 283 281 280 280 280 280 279 278 277 275 276 277
303 301 299 297 296 294 295 294 294 293 292 291 290 290 290 289 288 288 288 288 287 287 287 287 286 286 286 286 285 284 283 282 281 280 279 279 279 277 276 275 275 275 275
300 299 298 296 295 293 294 294 293 292 291 291 290 289 289 289 288 288 287 287 287 287 287 286 286 286 286 286 285 284 283 281 279 278 279 278 277 276 275 275 274 274 274
298 297 296 295 294 293 294 294 292 291 290 292 291 289 289 288 288 287 287 287 287 286 286 286 286 285 285 285 284 284 283 281 280 279 278 277 276 275 274 274 273 273 274
298 297 296 294 294 293 293 293 291 291 292 293 289 288 288 288 287 287 286 286 286 286 286 286 285 285 285 285 284 283 282 282 280 278 277 276 276 275 274 273 273 273 273
299 298 296 295 294 293 293 293 292 294 294 289 288 288 287 287 286 286 286 286 286 286 285 285 285 285 285 284 283 283 282 281 280 278 277 277 275 275 273 273 272 272 271
301 301 298 296 294 293 293 293 296 291 290 289 289 288 287 287 286 286 285 285 286 285 285 285 285 284 284 283 282 281 280 280 278 277 277 276 275 274 273 273 272 272 271
301 300 298 295 294 295 296 294 292 291 290 290 290 289 288 288 287 286 286 286 285 285 285 285 284 283 283 282 281 280 277 277 277 277 276 275 274 274 273 273 272 272 272
298 297 296 296 296 295 293 292 292 292 291 291 290 289 288 288 287 287 286 285 284 284 285 285 283 283 282 280 278 277 278 277 276 275 274 274 273 273 273 272 272 272 272
298 297 295 293 292 292 292 291 290 290 289 289 288 288 288 288 287 286 286 285 284 284 284 283 282 280 279 277 278 277 277 276 275 274 274 273 273 272 272 271 271 271 271
292 292 291 291 291 290 290 289 289 289 288 288 287 287 287 287 286 285 285 284 284 283 281 281 281 279 279 278 278 277 276 275 274 274 273 272 272 272 271 271 270 270 270
291 291 291 291 290 290 289 289 289 288 288 288 287 287 286 286 285 284 284 283 283 282 281 280 279 278 277 277 277 276 275 274 273 273 272 271 271 271 271 271 270 269 269
290 290 290 290 290 289 289 289 288 288 288 287 287 286 286 285 284 283 282 281 279 278 278 278 278 277 277 276 276 275 274 273 272 272 271 270 270 270 270 270 269 269 269
290 290 289 289 289 288 288 287 287 286 286 285 284 284 282 282 281 280 279 278 278 277 277 276 276 276 275 274 273 272 272 271 271 270 270 270 269 269 269 269 268 268 268
289 289 289 288 288 287 287 286 286 285 284 283 282 282 281 280 279 278 277 276 275 274 274 273 273 272 272 271 270 270 270 269 269 269 269 269 268 268 268 268 268 268 268
288 288 288 287 287 286 285 285 284 283 283 282 282 280 279 278 276 275 274 273 273 272 271 271 270 269 269 268 267 267 267 267 268 268 268 268 268 268 267 267 268 268 268
287 286 286 285 285 284 283 283 283 282 281 280 278 276 274 274 274 273 273 272 272 271 271 269 268 267 266 266 265 265 265 266 266 267 267 267 267 267 266 266 267 267 267
285 284 284 283 283 282 282 281 280 279 276 275 274 273 272 272 272 272 271 270 270 269 268 267 266 266 265 265 265 265 265 266 266 266 266 267 267 266 266 266 267 267 267
282 282 282 281 281 280 279 277 276 275 274 273 273 273 272 272 271 270 270 269 268 267 266 266 265 265 265 265 264 264 265 265 266 266 266 266 266 266 266 266 267 267 267
280 280 279 277 276 275 275 274 273 273 273 272 272 271 271 271 270 269 269 268 267 267 266 266 265 265 265 265 265 265 265 265 265 266 266 265 266 266 266 266 266 267 267
276 275 275 274 273 273 272 272 272 272 272 271 271 271 270 269 269 268 268 267 267 267 266 266 265 265 265 265 265 265 265 265 266 265 265 265 265 265 266 266 266 267 267
273 273 272 272 272 272 272 271 271 271 270 270 269 268 268 267 267 267 266 266 266 266 266 266 266 266 265 266 265 265 265 265 265 264 265 265 265 265 265 265 266 266 267
Wind_Speed
39 38 37 35 36 37 34 31 27 24 22 20 18 16 14 12 10 8 6 2 2 4 6 7 8 9 11 14 15 17 19 22 27 33 33 36 38 39 40 41 43 45 45
40 39 37 37 40 38 34 31 28 25 23 21 20 18 17 15 12 10 8 5 4 5 6 7 9 10 13 15 17 19 21 22 26 33 36 37 39 39 42 44 46 46 45
41 40 40 41 41 38 35 32 29 27 26 24 22 21 19 16 14 12 11 8 7 7 8 9 11 12 14 16 18 20 22 24 27 31 35 37 38 39 43 45 46 47 47
42 42 42 43 41 37 34 32 30 29 27 26 24 22 21 18 16 15 13 11 11 11 12 13 13 14 16 18 20 22 24 26 27 30 33 36 37 39 41 44 49 47 49
44 44 44 42 39 36 34 32 31 29 28 26 25 24 23 20 19 18 15 15 15 15 16 16 17 17 18 20 22 24 25 27 28 29 32 35 38 40 41 43 43 45 48
47 46 45 42 39 38 35 33 32 31 30 29 28 26 24 22 21 19 19 19 19 19 19 19 20 20 20 21 24 25 26 28 28 29 31 33 36 35 39 40 37 38 54
48 47 45 43 40 40 35 34 34 33 31 29 28 28 26 24 23 22 22 22 23 22 22 22 23 23 22 24 26 27 27 27 26 26 29 30 33 35 35 37 43 43 45
48 46 44 43 40 39 37 36 35 32 31 26 31 29 27 25 25 24 25 26 26 25 25 25 26 25 24 26 28 29 29 28 26 27 26 29 31 31 32 37 38 40 42
46 45 44 41 40 41 39 36 34 32 29 32 30 28 28 25 26 26 27 29 29 28 27 28 28 28 26 28 31 32 32 31 28 26 25 28 33 33 33 34 34 36 41
40 39 38 39 41 41 36 34 31 30 32 30 28 28 27 27 27 28 29 31 31 30 30 29 29 29 30 31 32 31 33 31 29 30 32 33 34 32 30 29 29 31 32
25 25 31 38 40 35 31 29 31 32 29 27 27 27 27 28 28 30 31 33 32 32 31 31 30 30 32 32 30 30 31 30 29 32 34 36 34 31 29 27 26 27 29
20 23 29 30 30 27 30 30 27 27 27 27 27 27 28 29 29 30 32 32 31 32 32 32 32 32 33 33 30 29 24 24 31 35 37 37 32 31 29 27 26 28 28
23 23 24 26 28 27 26 26 26 26 26 26 27 27 27 27 29 31 31 30 31 32 34 35 34 34 34 30 24 24 29 34 35 35 35 34 31 30 29 29 28 29 31
21 23 24 24 25 25 25 24 24 23 24 24 26 27 27 29 31 31 31 31 30 32 33 34 34 33 30 30 32 29 30 30 32 33 34 33 31 29 28 28 31 30 33
19 20 22 23 23 23 22 21 21 22 24 25 27 28 29 32 31 32 32 32 31 31 31 35 35 35 35 33 31 32 31 32 32 32 33 31 30 30 28 28 29 29 30
17 19 20 21 22 23 23 23 24 25 26 27 28 29 30 32 33 32 31 31 30 28 29 31 32 33 33 32 32 32 30 31 31 31 30 29 29 29 29 28 27 26 28
16 17 18 21 24 25 25 25 26 26 27 27 28 29 31 30 27 26 23 22 19 17 23 29 34 36 37 36 32 31 31 31 30 30 30 28 27 28 28 27 25 24 25
18 20 22 22 23 24 25 26 26 26 25 24 24 24 22 22 23 23 24 25 29 29 33 35 37 39 40 40 37 34 32 31 31 30 29 27 26 26 27 24 22 21 23
19 20 21 22 23 25 25 25 24 22 21 20 19 20 22 24 24 25 26 28 29 31 31 33 35 37 38 38 36 33 33 31 29 29 27 26 24 24 24 22 21 18 20
18 18 19 19 19 20 20 19 18 17 17 17 19 20 20 22 22 23 25 26 27 29 30 32 32 33 33 32 30 30 31 29 27 26 26 25 22 23 22 21 18 18 18
15 16 16 15 15 15 15 14 14 15 16 16 17 17 19 23 23 23 24 25 27 29 29 29 28 28 27 24 23 22 23 22 22 24 24 23 22 21 20 20 18 16 17
12 12 12 11 11 11 12 13 14 14 14 15 16 17 19 20 22 24 24 25 26 26 25 25 24 22 23 24 24 25 24 22 22 22 22 22 20 20 18 19 18 16 16
9 9 9 10 11 11 11 11 12 13 14 15 17 18 20 21 22 23 23 22 22 21 21 22 23 22 21 21 21 21 22 21 21 20 21 19 19 19 18 18 18 16 15
9 9 9 9 9 9 10 11 12 13 14 16 18 19 20 21 22 21 20 20 20 19 19 20 20 21 20 19 19 19 20 20 20 19 18 19 19 18 19 18 17 16 15
9 8 8 9 9 9 10 11 13 14 15 17 18 20 20 20 19 19 18 19 19 19 18 19 19 19 19 18 18 18 17 18 18 18 19 19 19 18 18 19 17 16 16
8 8 9 9 10 11 12 14 14 15 16 16 17 17 17 18 18 18 18 19 20 20 19 18 18 17 17 17 17 17 17 17 17 17 18 19 18 17 17 18 18 18 17
Wind_Direction
211 210 207 205 199 198 200 201 204 206 206 208 210 211 211 208 207 211 216 231 327 353 353 349 342 337 330 320 312 308 307 306 304 307 312 313 316 318 320 320 321 321 321
212 211 209 204 199 201 203 205 208 209 210 213 215 216 214 213 215 219 225 240 276 312 328 329 324 321 321 318 314 308 305 302 304 306 310 312 314 317 318 319 321 322 324
211 211 207 204 204 204 204 207 209 211 214 216 218 220 219 221 223 223 228 246 268 288 302 306 305 305 313 314 309 307 304 302 303 304 307 309 312 317 317 320 324 324 325
211 211 209 208 207 205 207 210 212 215 218 220 222 222 222 225 225 230 237 251 265 278 287 292 291 294 302 307 309 306 300 299 300 302 304 310 313 317 320 324 322 324 323
212 212 212 211 210 208 209 212 215 218 220 223 225 223 224 227 234 235 244 253 265 275 282 282 283 288 296 302 304 301 300 301 302 304 306 311 314 319 322 322 320 323 321
215 215 214 214 213 213 210 213 217 219 221 223 226 229 232 235 235 239 248 257 266 274 278 278 279 284 290 297 300 298 297 299 301 302 305 308 312 316 321 320 321 311 315
216 216 217 216 216 216 214 216 221 223 223 226 232 234 235 237 237 244 251 259 268 274 276 277 278 280 286 293 296 295 296 295 296 296 300 304 309 317 318 311 309 311 312
218 219 219 219 220 220 220 222 223 224 228 235 239 237 239 239 243 248 254 261 267 273 275 276 277 279 285 290 294 296 294 291 292 293 299 304 308 310 301 305 307 309 309
222 224 223 223 225 225 225 225 227 228 234 241 237 241 243 244 247 252 258 265 270 273 274 274 276 279 285 289 291 293 294 294 297 298 291 292 300 306 307 306 310 311 315
225 229 229 231 230 230 231 231 232 241 244 239 243 246 248 249 250 255 260 266 271 275 274 275 277 280 283 284 286 289 289 295 297 295 293 299 305 306 307 305 308 312 319
226 232 230 230 232 233 233 233 240 238 239 242 245 248 250 252 253 257 262 267 272 275 276 277 278 279 280 282 284 283 286 291 290 288 292 300 303 304 303 303 307 311 314
225 217 221 225 225 223 227 232 232 234 237 239 243 246 249 253 257 260 263 268 272 272 276 278 278 279 278 280 281 284 275 268 277 286 292 298 300 302 302 303 306 306 308
215 216 214 214 216 219 222 224 226 229 234 240 245 251 255 258 260 263 266 267 266 268 274 277 277 277 279 281 275 267 270 276 282 284 296 300 299 299 301 304 304 306 307
208 206 207 211 214 215 216 220 226 232 240 246 250 254 259 263 265 267 268 269 268 267 270 272 277 279 277 276 278 276 277 280 285 291 299 296 295 297 299 303 307 312 312
204 212 216 217 217 216 220 228 236 242 247 252 257 261 262 265 269 269 268 267 269 270 271 270 271 272 276 278 279 280 282 283 285 292 295 293 292 294 298 302 306 311 314
215 219 222 223 222 226 233 237 242 246 250 254 259 264 267 270 272 272 271 272 274 274 273 276 281 284 285 287 286 283 276 278 285 290 290 288 289 291 296 300 304 309 314
225 227 231 233 236 240 244 247 251 254 258 261 264 269 273 272 270 271 273 274 276 279 269 269 277 282 286 288 286 285 280 283 285 289 286 284 285 289 293 298 303 307 314
242 243 243 244 246 248 250 252 253 256 260 264 269 270 270 269 270 269 265 259 260 259 260 264 267 269 274 278 282 284 281 281 285 286 282 280 282 285 289 295 299 306 316
249 249 250 251 251 252 252 254 256 257 259 260 259 261 262 262 264 266 269 275 278 278 277 275 274 275 274 275 276 276 277 279 280 279 276 276 278 281 285 291 294 302 315
254 255 255 255 255 254 253 253 254 256 258 260 260 260 265 270 272 275 279 281 282 285 286 286 284 282 282 282 279 277 275 275 275 274 273 274 276 277 283 287 287 299 314
255 255 255 253 250 250 251 253 257 262 264 267 272 275 275 275 283 286 290 292 293 293 293 292 288 284 282 280 278 282 282 277 271 271 272 273 271 273 276 281 283 292 308
254 253 251 249 247 249 253 257 258 264 271 275 276 278 280 287 290 294 295 295 295 296 297 296 295 292 286 284 281 280 280 277 273 274 273 270 269 270 275 278 277 284 299
252 251 251 253 253 254 257 262 266 269 272 275 280 283 286 289 291 291 290 290 291 292 293 294 295 294 291 288 284 281 279 277 276 273 271 269 269 271 272 275 275 275 289
247 246 246 248 251 254 257 261 266 274 281 285 287 290 290 289 289 289 289 291 292 292 293 292 291 291 288 286 283 280 278 278 276 273 270 271 271 271 270 271 275 273 283
234 233 237 245 252 259 267 275 279 282 284 286 288 288 287 287 287 288 290 291 292 292 291 289 289 289 288 290 287 284 279 276 275 274 274 274 274 272 272 270 274 273 273
244 250 254 259 264 268 271 273 274 277 280 281 282 283 285 286 288 290 290 290 290 291 292 292 291 291 291 291 287 284 281 279 276 275 274 274 275 275 274 273 272 275 272